Location: Unspecified
(0.0000°N, 0.0000°E)
Time: 22:19:55
(UTC+00:00)

Transit 2A Rocket - Pass Details

Date: 18 December 2018
Orbit: 586 x 918 km, 66.7° (Epoch: 19 January)

Event Time Altitude Azimuth Distance (km) Brightness Sun altitude
Rises 19:04:29 0° 306° (NW) 3,542 8.9 -15.5°
Reaches altitude 10° 19:08:10 10° 284° (WNW) 2,595 8.5 -16.3°
Maximum altitude 19:11:30 15° 251° (WSW) 2,223 8.5 -17.1°
Drops below altitude 10° 19:14:49 10° 216° (SW) 2,544 8.6 -17.9°
Sets 19:18:24 0° 194° (SSW) 3,434 8.9 -18.7°
